Wind_Speed
6 6 4 3 2 2 1 1 1 1 2 2 1 1 1 1 1 1 0 1 1 2 2 2 2 3 2 2 3 3 3 3 4 4 4 3 3 3 3 3 3 3 3
7 7 6 5 4 3 3 3 2 2 2 2 2 2 1 1 1 1 0 1 1 1 1 2 2 2 2 2 3 3 3 4 4 4 4 4 4 4 4 4 4 4 5
9 8 7 6 5 4 5 4 3 3 2 2 2 2 2 1 1 1 0 0 1 1 1 1 1 2 2 2 3 3 3 3 3 4 4 5 5 4 5 5 5 5 6
10 9 9 7 6 5 5 5 4 4 3 3 3 2 2 2 1 1 1 1 1 1 1 1 1 1 2 2 2 2 2 2 3 3 4 4 5 5 6 5 5 6 6
12 11 10 9 7 6 6 6 5 5 4 4 3 3 3 2 2 2 2 2 2 2 2 2 2 2 1 1 2 2 2 2 2 2 3 4 5 5 5 5 6 6 7
13 13 11 10 9 8 8 8 7 6 6 5 5 4 4 3 3 3 3 3 3 3 2 2 2 2 1 1 1 2 2 2 2 3 3 3 4 5 5 5 6 6 6
14 14 13 12 11 10 9 9 8 8 8 7 7 6 6 5 4 4 4 4 4 4 3 3 3 3 2 2 2 3 3 3 3 3 3 3 4 4 4 5 5 6 6
15 15 15 14 13 12 11 10 10 9 9 8 8 8 8 7 6 6 5 5 5 5 5 4 4 4 4 3 3 3 3 3 3 4 4 4 5 5 5 5 6 7 7
16 16 16 16 15 14 13 12 11 11 10 9 9 9 9 8 7 7 7 7 7 7 7 6 5 5 5 5 5 5 4 4 4 5 5 5 6 6 6 7 7 8 8
17 17 18 17 17 16 15 14 13 12 12 11 11 10 10 9 9 9 9 9 8 8 8 8 7 7 7 6 6 6 6 6 6 6 6 7 7 8 8 8 9 9 10
18 19 20 19 18 18 17 16 16 15 14 13 13 12 11 11 11 10 10 10 10 9 9 9 9 8 8 8 8 8 8 8 8 8 9 9 9 10 10 10 11 11 12
18 20 21 21 20 20 19 18 17 16 15 15 14 14 13 13 12 11 11 11 11 10 10 10 10 10 10 10 10 10 10 11 11 11 12 12 12 12 12 13 13 13 14
20 20 22 22 21 21 20 20 19 18 17 17 16 15 15 14 13 13 12 12 12 12 12 12 12 12 12 12 12 12 13 13 13 14 14 14 15 15 15 16 16 16 17
21 21 22 22 22 22 22 21 20 20 18 18 17 17 16 16 15 14 14 13 14 14 14 13 13 13 13 13 14 14 15 15 15 16 17 17 18 18 18 18 19 19 20
22 23 23 23 22 22 22 21 20 20 20 19 18 17 17 17 16 16 15 15 15 15 15 15 15 15 15 15 15 16 17 18 18 19 19 20 20 20 21 21 22 23 23
23 23 24 24 23 22 22 22 21 21 21 20 19 19 19 19 18 17 17 17 17 17 17 18 17 17 18 18 18 19 20 21 22 22 23 23 23 24 24 25 25 25 26
22 22 22 23 23 24 23 23 22 22 22 21 21 20 20 20 20 19 19 18 18 19 19 20 20 21 21 21 22 23 24 24 24 25 25 26 26 27 28 28 28 28 29
22 21 21 21 22 23 24 23 23 22 22 22 23 23 22 21 21 21 20 19 20 20 21 22 23 24 25 25 25 25 26 26 27 27 28 29 29 30 31 31 31 32 32
22 22 22 22 22 23 23 23 23 23 23 23 23 23 22 22 22 22 21 21 22 23 24 24 25 26 27 27 28 28 29 30 30 31 31 32 32 33 34 34 35 35 36
21 22 22 23 22 22 23 23 23 23 23 23 23 22 23 23 24 24 24 24 25 25 26 27 28 29 30 31 31 31 32 33 34 34 35 35 36 36 36 37 38 38 39
20 22 22 22 22 23 24 24 23 23 23 23 23 23 23 24 25 26 27 27 27 28 29 30 31 31 32 33 33 34 34 35 35 36 37 38 38 39 39 40 41 41 42
19 21 22 22 23 24 25 24 24 24 24 25 24 25 25 26 27 28 29 30 30 31 32 33 34 34 35 36 36 36 37 37 37 39 39 39 40 41 42 43 43 44 44
19 21 22 23 22 24 25 24 25 25 26 26 26 26 26 27 29 30 31 31 31 32 34 35 36 37 38 39 39 39 39 40 40 41 41 41 43 43 44 45 46 46 47
17 19 20 21 22 22 23 25 26 26 27 28 28 28 28 29 31 32 32 32 33 34 35 36 37 37 39 40 40 41 42 42 42 43 44 44 44 46 47 48 49 49 50
16 18 19 20 21 22 22 24 25 26 27 28 29 29 30 31 32 33 33 34 35 35 37 37 38 39 39 40 41 42 43 44 44 45 47 48 48 50 50 50 51 52 53
16 18 19 20 21 22 23 25 26 26 28 29 30 31 31 32 33 34 34 35 36 37 39 40 41 41 42 42 43 44 45 46 47 47 49 50 51 51 51 51 52 54 56
Wind_Direction
228 225 227 239 256 260 256 244 220 218 221 224 195 192 192 185 177 167 188 196 207 225 237 248 244 253 258 265 271 273 271 277 280 274 278 286 289 289 294 289 282 282 291
226 225 227 230 238 243 236 231 225 226 214 218 220 212 198 181 164 137 120 160 187 228 240 248 253 255 256 266 272 278 275 277 275 270 271 276 281 285 287 284 282 282 283
222 225 227 227 234 236 232 227 219 227 227 217 211 196 180 177 176 182 175 186 222 243 256 255 265 267 263 269 274 282 285 281 275 270 268 269 272 277 284 287 286 282 282
219 222 224 224 231 234 229 225 223 234 234 221 207 206 204 200 196 220 235 230 245 254 254 262 270 270 265 267 274 286 297 291 279 277 275 275 272 275 277 281 285 284 283
216 218 222 223 230 236 230 226 229 232 231 231 224 221 225 227 225 250 259 252 256 251 246 253 256 254 249 266 290 292 299 307 302 301 295 284 280 280 276 282 287 289 289
217 218 221 222 227 231 230 230 230 233 233 236 237 235 237 241 243 260 264 256 255 251 246 253 254 243 241 266 294 308 311 308 310 312 311 306 298 289 286 288 290 295 296
218 218 220 223 228 231 231 232 233 235 236 236 240 238 239 243 245 253 255 251 250 252 250 257 253 246 252 262 280 297 300 298 304 311 315 315 317 306 299 299 299 299 298
221 219 223 226 229 232 234 237 237 238 237 238 239 239 241 246 248 246 245 247 247 248 249 254 250 246 252 264 278 290 288 287 296 304 306 310 313 311 307 306 302 301 301
225 223 225 227 232 234 236 237 238 233 233 236 237 239 242 247 249 250 249 249 246 244 246 248 249 253 255 265 272 280 283 283 288 294 297 300 302 304 303 301 300 298 298
225 225 226 228 234 237 237 236 236 233 235 238 239 241 244 246 249 252 254 252 249 246 248 251 252 257 260 264 269 273 276 278 281 286 292 295 296 297 296 295 295 295 295
229 226 226 228 234 237 237 237 237 236 237 238 240 243 245 249 248 252 252 251 251 251 251 254 256 259 262 263 266 269 272 275 279 283 287 291 294 294 293 292 292 293 295
231 228 227 230 234 236 237 236 236 236 237 238 240 244 247 250 249 251 252 250 250 253 255 257 261 263 262 262 265 267 270 274 277 281 284 288 290 290 290 290 290 291 293
233 231 230 232 233 234 235 235 236 235 236 239 240 244 247 246 248 250 253 250 249 250 254 259 263 267 263 263 265 268 271 275 278 281 283 285 287 287 287 287 287 288 289
233 231 229 230 232 234 236 236 236 236 237 238 240 243 243 245 248 249 252 250 248 251 255 259 265 268 265 264 267 270 272 276 279 281 282 284 285 285 285 286 286 287 288
233 233 230 231 233 234 236 238 237 237 238 239 240 242 245 248 248 249 251 250 250 252 256 259 262 267 266 267 271 273 276 279 281 282 282 282 283 284 284 284 285 286 286
234 233 232 232 233 235 236 238 239 238 240 240 240 243 247 249 250 251 252 252 253 255 257 261 263 265 268 270 274 276 279 281 281 281 281 281 281 282 283 284 284 284 284
231 231 232 233 235 236 236 238 239 241 241 242 244 247 250 251 251 252 253 253 256 259 259 261 265 267 269 271 274 277 278 280 281 281 281 280 280 281 282 283 283 283 283
230 229 230 233 235 237 237 238 240 241 244 247 248 250 250 250 250 251 252 254 259 262 263 264 266 269 271 272 274 276 278 279 280 281 281 281 281 281 282 283 282 283 282
228 228 230 235 235 236 237 239 241 243 246 250 251 251 250 250 250 253 256 259 263 265 266 267 269 271 273 274 274 276 278 279 280 281 281 281 281 282 282 282 282 282 282
229 230 232 236 236 236 238 240 241 244 247 252 253 253 252 251 253 256 259 262 264 266 268 268 270 272 273 274 274 276 278 280 280 280 280 281 281 282 282 282 282 282 282
230 230 234 236 237 238 240 242 243 246 250 254 255 255 256 257 257 260 263 265 266 267 269 271 271 273 274 274 276 278 279 280 281 281 281 282 282 282 282 282 282 282 282
232 233 235 240 242 242 245 246 248 251 254 256 257 258 260 261 261 264 266 268 270 271 272 272 273 274 275 276 276 278 279 280 282 282 282 282 282 283 283 283 283 283 283
238 239 239 242 244 245 245 248 250 251 255 257 260 261 264 265 266 268 270 271 273 273 273 274 274 275 276 276 277 278 280 281 282 282 282 282 282 283 283 284 284 284 284
240 240 243 243 246 248 250 250 253 254 257 259 263 265 266 268 270 270 271 273 273 274 275 276 276 277 277 278 280 281 282 282 283 283 283 282 282 283 284 284 284 284 284
247 246 248 248 250 251 253 255 258 259 260 262 265 267 268 270 271 272 273 274 275 277 277 278 279 280 281 281 281 282 282 282 283 284 284 283 283 283 283 283 283 284 284
254 254 253 253 254 256 257 259 261 263 264 265 266 267 269 271 272 274 275 276 277 278 279 280 280 280 281 281 282 282 283 284 284 284 284 284 284 284 283 284 284 284 285
Height
5890 5891 5892 5893 5894 5895 5896 5896 5897 5898 5898 5899 5900 5900 5900 5901 5901 5901 5902 5902 5902 5902 5903 5903 5903 5903 5904 5904 5904 5904 5904 5904 5904 5904 5904 5904 5904 5904 5904 5904 5904 5904 5904
5888 5890 5891 5893 5894 5895 5895 5896 5897 5898 5898 5899 5900 5900 5900 5901 5901 5901 5902 5902 5902 5902 5903 5903 5903 5903 5903 5903 5903 5903 5903 5903 5903 5903 5903 5904 5903 5904 5903 5903 5903 5903 5903
5887 5888 5890 5891 5893 5894 5895 5896 5896 5897 5898 5899 5899 5900 5900 5901 5901 5901 5902 5902 5902 5902 5902 5903 5903 5903 5903 5903 5903 5903 5902 5902 5902 5902 5902 5903 5903 5903 5903 5903 5902 5902 5902
5885 5887 5889 5890 5892 5893 5894 5895 5896 5897 5897 5898 5899 5900 5900 5900 5901 5901 5901 5901 5902 5902 5902 5902 5902 5902 5903 5903 5903 5902 5902 5902 5902 5902 5902 5902 5902 5902 5902 5902 5901 5901 5901
5883 5885 5887 5889 5890 5892 5893 5894 5895 5896 5897 5898 5898 5899 5900 5900 5900 5901 5901 5901 5901 5901 5902 5902 5902 5902 5902 5902 5902 5902 5902 5902 5901 5901 5901 5901 5901 5901 5901 5901 5900 5900 5900
5881 5883 5886 5887 5889 5891 5892 5893 5894 5895 5896 5897 5898 5898 5899 5899 5900 5900 5901 5901 5901 5901 5901 5902 5902 5902 5902 5902 5902 5902 5902 5901 5901 5901 5901 5900 5900 5900 5900 5900 5900 5899 5899
5879 5881 5884 5886 5888 5889 5891 5892 5893 5894 5895 5896 5897 5897 5898 5899 5899 5900 5900 5900 5900 5901 5901 5901 5902 5902 5902 5902 5902 5901 5901 5901 5901 5900 5900 5900 5899 5899 5899 5899 5899 5898 5898
5876 5879 5882 5884 5885 5887 5889 5890 5891 5892 5893 5894 5895 5896 5897 5898 5898 5899 5899 5899 5900 5900 5900 5901 5901 5901 5901 5901 5901 5901 5901 5900 5900 5900 5900 5899 5899 5899 5898 5898 5898 5897 5897
5874 5876 5879 5881 5883 5885 5887 5888 5889 5891 5892 5893 5894 5895 5895 5896 5897 5897 5898 5898 5899 5899 5899 5900 5900 5900 5900 5900 5900 5900 5900 5900 5900 5899 5899 5899 5898 5898 5897 5897 5896 5896 5895
5871 5874 5876 5878 5881 5882 5884 5886 5887 5888 5890 5891 5892 5893 5894 5894 5895 5896 5896 5896 5897 5897 5898 5898 5899 5899 5899 5899 5899 5899 5899 5899 5899 5898 5898 5897 5897 5896 5896 5895 5895 5894 5894
5867 5870 5873 5875 5878 5879 5881 5883 5884 5886 5887 5889 5890 5891 5892 5892 5893 5894 5894 5895 5895 5896 5896 5897 5897 5897 5897 5897 5898 5898 5898 5898 5897 5897 5897 5896 5896 5895 5894 5894 5893 5892 5892
5863 5866 5869 5871 5874 5876 5878 5880 5881 5883 5885 5886 5887 5888 5889 5890 5891 5891 5892 5892 5893 5894 5894 5895 5895 5895 5895 5895 5896 5896 5896 5896 5895 5895 5895 5894 5894 5893 5892 5891 5890 5890 5889
5860 5862 5865 5867 5870 5872 5874 5876 5878 5880 5881 5883 5884 5885 5886 5887 5888 5889 5889 5890 5891 5891 5892 5892 5892 5893 5893 5893 5893 5893 5893 5893 5893 5892 5892 5891 5891 5890 5889 5888 5887 5886 5885
5856 5858 5860 5863 5865 5868 5870 5873 5875 5876 5878 5879 5881 5882 5883 5884 5885 5886 5886 5887 5888 5889 5889 5889 5890 5889 5889 5890 5890 5890 5890 5889 5889 5889 5888 5888 5887 5886 5885 5884 5883 5882 5881
5851 5854 5856 5859 5861 5864 5866 5869 5871 5873 5874 5876 5877 5879 5880 5881 5882 5882 5883 5884 5885 5885 5886 5886 5886 5886 5886 5886 5886 5886 5886 5886 5885 5885 5884 5883 5882 5881 5880 5879 5878 5877 5876
5846 5849 5852 5855 5857 5860 5863 5865 5867 5869 5870 5872 5873 5875 5876 5877 5878 5879 5879 5880 5881 5882 5882 5882 5882 5883 5883 5882 5882 5882 5882 5881 5880 5879 5879 5878 5877 5876 5875 5874 5872 5871 5870
5842 5845 5847 5850 5853 5856 5858 5861 5863 5865 5866 5868 5869 5870 5872 5872 5873 5874 5875 5876 5877 5877 5878 5878 5878 5878 5878 5878 5877 5877 5876 5875 5875 5874 5873 5872 5871 5870 5868 5867 5866 5865 5863
5838 5841 5843 5846 5849 5851 5854 5856 5858 5860 5862 5863 5864 5865 5866 5867 5869 5870 5870 5871 5872 5872 5873 5873 5872 5872 5872 5872 5871 5871 5870 5869 5868 5867 5866 5865 5864 5862 5861 5860 5858 5857 5855
5833 5836 5839 5842 5845 5847 5849 5851 5853 5855 5857 5858 5859 5860 5861 5862 5864 5864 5865 5866 5867 5867 5867 5867 5867 5866 5866 5865 5865 5864 5863 5862 5861 5860 5858 5857 5855 5854 5852 5851 5849 5848 5846
5830 5833 5836 5838 5840 5842 5844 5846 5848 5850 5851 5853 5854 5855 5856 5857 5858 5859 5860 5860 5860 5861 5861 5860 5860 5859 5859 5858 5857 5856 5856 5854 5853 5851 5850 5848 5846 5845 5843 5841 5840 5838 5836
5827 5829 5832 5834 5836 5838 5839 5841 5843 5845 5846 5847 5849 5850 5851 5852 5852 5853 5853 5854 5854 5854 5853 5853 5852 5852 5851 5850 5849 5848 5847 5846 5844 5842 5840 5839 5837 5835 5833 5830 5829 5827 5825
5823 5826 5828 5830 5831 5833 5834 5836 5838 5839 5841 5842 5843 5844 5845 5845 5846 5846 5846 5846 5846 5846 5846 5845 5844 5843 5842 5841 5840 5839 5838 5836 5835 5833 5830 5829 5826 5824 5821 5819 5817 5815 5813
5820 5822 5823 5825 5827 5828 5829 5831 5832 5834 5835 5837 5838 5838 5838 5839 5839 5839 5839 5838 5838 5838 5837 5836 5835 5834 5833 5831 5830 5829 5827 5826 5824 5821 5819 5818 5814 5812 5809 5807 5804 5802 5800
5816 5818 5819 5820 5822 5823 5824 5825 5826 5828 5829 5831 5831 5831 5831 5831 5831 5831 5831 5830 5830 5829 5828 5827 5826 5825 5823 5821 5819 5818 5816 5814 5812 5809 5806 5805 5803 5800 5797 5794 5791 5788 5786
5813 5814 5815 5816 5817 5818 5819 5820 5821 5822 5823 5824 5824 5824 5824 5824 5823 5822 5822 5822 5821 5820 5818 5817 5815 5814 5812 5810 5808 5806 5804 5802 5800 5798 5794 5791 5790 5787 5785 5781 5777 5774 5771
5809 5810 5811 5812 5813 5813 5814 5815 5815 5816 5816 5817 5817 5816 5816 5816 5815 5814 5813 5812 5811 5810 5808 5807 5805 5803 5801 5799 5796 5794 5792 5789 5787 5785 5781 5777 5775 5772 5770 5768 5763 5759 5755